CW9546 Weather Reports


Display with metric or nautical units.
time (UTC)temp
F
wind
direction
speed
MPH
gust
MPH
rain 1hr
in
rain 24hr
in
rain mn
in
humidity
%
barometer
mb
20260503004101 75 209 2.0 0.0 0.00 0.00 0.01 55 1012.8
20260503003050 76 356 2.0 0.0 0.00 0.00 0.01 55 1012.8
20260503001043 76 37 2.0 0.0 0.00 0.00 0.01 55 1012.8
20260503000057 75 98 2.0 0.0 0.00 0.00 0.01 55 1012.8
20260502235044 76 274 3.0 0.0 0.00 0.00 0.01 54 1013.0
20260502234038 76 94 2.0 0.0 0.00 0.00 0.01 54 1013.0
20260502233145 76 287 2.0 0.0 0.00 0.00 0.01 54 1013.3
20260502232051 76 23 2.0 0.0 0.00 0.00 0.01 56 1013.4
20260502231032 76 304 2.0 0.0 0.00 0.00 0.01 57 1013.4
20260502230046 76 158 2.0 0.0 0.00 0.00 0.01 58 1013.8
20260502225104 76 221 2.0 0.0 0.00 0.00 0.01 55 1013.8
20260502224050 76 297 2.0 0.0 0.00 0.00 0.01 57 1013.8
20260502223120 76 285 2.0 0.0 0.00 0.00 0.01 55 1014.0
20260502222046 76 276 3.0 0.0 0.00 0.00 0.01 60 1014.2
20260502221029 76 358 3.0 0.0 0.00 0.00 0.01 57 1014.2
20260502220033 76 268 2.0 0.0 0.00 0.00 0.01 56 1014.4
20260502215036 75 352 2.0 0.0 0.00 0.00 0.01 57 1014.4
20260502214032 75 321 2.0 0.0 0.00 0.00 0.01 59 1014.4
20260502212038 74 299 2.0 0.0 0.00 0.00 0.01 58 1014.8
20260502211029 74 266 2.0 0.0 0.00 0.00 0.01 58 1014.8
20260502210039 73 274 2.0 0.0 0.00 0.00 0.01 61 1014.8
20260502205111 73 262 2.0 0.0 0.00 0.00 0.01 59 1014.9
20260502204104 72 269 2.0 0.0 0.00 0.00 0.01 63 1014.9
20260502203042 70 70 2.0 0.0 0.00 0.00 0.01 63 1015.0
20260502202036 70 1 2.0 0.0 0.00 0.00 0.01 63 1015.3
20260502201037 70 331 2.0 0.0 0.00 0.00 0.01 64 1015.3
20260502200043 69 123 2.0 0.0 0.00 0.00 0.01 63 1015.4
20260502195031 68 81 2.0 0.0 0.00 0.00 0.01 64 1015.5
20260502194036 68 55 2.0 0.0 0.00 0.00 0.01 65 1015.5
20260502193035 67 93 2.0 0.0 0.00 0.00 0.01 67 1015.7
20260502192030 67 102 2.0 0.0 0.00 0.00 0.01 67 1015.8
20260502191101 67 110 1.0 0.0 0.00 0.00 0.01 66 1015.8
20260502190052 67 101 1.0 0.0 0.00 0.00 0.01 66 1016.0
20260502185046 66 163 2.0 0.0 0.00 0.00 0.01 67 1015.9
20260502184052 66 107 2.0 0.0 0.00 0.00 0.01 69 1015.9
20260502183035 65 178 1.0 0.0 0.00 0.00 0.01 69 1016.0
20260502182041 64 56 2.0 0.0 0.00 0.00 0.01 70 1015.9
20260502181055 66 134 2.0 0.0 0.00 0.00 0.01 68 1016.0
20260502180128 65 260 2.0 0.0 0.00 0.00 0.01 73 1016.2
20260502164207 57 105 1.0 0.0 0.00 0.00 0.01 74 1016.6
20260502163051 56 94 1.0 0.0 0.00 0.00 0.01 74 1016.5
20260502162039 56 97 0.0 0.0 0.00 0.00 0.01 74 1016.5
20260502161046 55 97 0.0 0.0 0.00 0.00 0.01 74 1016.5
20260502160105 54 96 1.0 0.0 0.00 0.00 0.01 74 1016.5
20260502152106 54 234 0.0 0.0 0.00 0.00 0.01 75 1016.3
20260502151052 54 233 0.0 0.0 0.00 0.00 0.01 74 1016.3
20260502123114 50 207 0.0 0.0 0.00 0.00 0.00 78 1016.3
20260502122042 50 207 0.0 0.0 0.00 0.00 0.00 78 1016.4
20260502121040 50 207 0.0 0.0 0.00 0.00 0.00 78 1016.4
20260502120107 50 207 0.0 0.0 0.00 0.00 0.00 77 1016.5
20260502115035 50 207 0.0 0.0 0.00 0.00 0.00 77 1016.9
20260502114053 50 207 0.0 0.0 0.00 0.00 0.00 77 1016.9
20260502113041 49 207 0.0 0.0 0.00 0.00 0.00 77 1016.7
20260502112051 49 207 0.0 0.0 0.00 0.00 0.00 77 1016.5
20260502111043 50 207 0.0 0.0 0.00 0.00 0.00 77 1016.5
20260502110051 50 207 0.0 0.0 0.00 0.00 0.00 77 1016.0
20260502105038 50 207 0.0 0.0 0.00 0.00 0.00 77 1016.1
20260502104047 50 207 0.0 0.0 0.00 0.00 0.00 77 1016.1
20260502103041 50 207 0.0 0.0 0.00 0.00 0.00 78 1016.0
20260502102041 50 207 0.0 0.0 0.00 0.00 0.00 78 1015.9
20260502101031 50 207 0.0 0.0 0.00 0.00 0.00 78 1015.9
20260502091044 51 207 0.0 0.0 0.00 0.00 0.00 76 1016.1
20260502071029 55 207 0.0 0.0 0.00 0.00 0.00 74 1016.1
20260502070111 55 207 0.0 0.0 0.00 0.00 0.00 73 1016.1
20260502065039 55 207 1.0 0.0 0.00 0.00 0.00 73 1016.0
20260502064042 55 232 1.0 0.0 0.00 0.00 0.00 72 1016.0
20260502063042 55 305 0.0 0.0 0.00 0.00 0.00 73 1016.0
20260502062047 55 306 0.0 0.0 0.00 0.00 0.00 73 1016.1
20260502061046 55 306 0.0 0.0 0.00 0.00 0.00 73 1016.1
20260502060040 55 306 1.0 0.0 0.00 0.00 0.00 72 1015.8
20260502055037 55 309 0.0 0.0 0.00 0.00 0.00 72 1015.6
20260502054042 55 309 0.0 0.0 0.00 0.00 0.00 72 1015.6
20260502053036 56 309 0.0 0.0 0.00 0.00 0.00 71 1015.6
20260502052033 56 309 0.0 0.0 0.00 0.00 0.00 70 1015.5
20260502051042 57 309 0.0 0.0 0.00 0.00 0.00 71 1015.5
20260502045033 57 310 0.0 0.0 0.00 0.00 0.00 70 1015.2
20260502044031 57 310 0.0 0.0 0.00 0.00 0.00 69 1015.2
20260502043113 58 316 1.0 0.0 0.00 0.00 0.00 69 1014.9
20260502042034 59 323 1.0 0.0 0.00 0.00 0.00 65 1015.1
20260502041054 60 316 1.0 0.0 0.00 0.00 0.00 63 1015.1
20260502040052 60 355 1.0 0.0 0.00 0.00 0.00 62 1014.9
20260502035045 60 273 2.0 0.0 0.00 0.00 0.00 63 1014.9
20260502034037 61 278 1.0 0.0 0.00 0.00 0.00 65 1014.9
20260502033047 61 304 1.0 0.0 0.00 0.00 0.00 66 1014.5
20260502032037 62 2 1.0 0.0 0.00 0.00 0.00 67 1014.3
20260502031058 62 307 1.0 0.0 0.00 0.00 0.00 68 1014.3
20260502030047 63 51 0.0 0.0 0.00 0.00 0.00 68 1014.5
20260502025059 63 54 0.0 0.0 0.00 0.00 0.00 67 1014.4
20260502024048 64 56 1.0 0.0 0.00 0.00 0.00 67 1014.4
20260502023050 65 290 1.0 0.0 0.00 0.00 0.00 66 1013.9
20260502022103 66 261 1.0 0.0 0.00 0.00 0.00 63 1014.0
20260502021031 68 282 1.0 0.0 0.00 0.00 0.00 56 1014.0
20260502020053 68 278 2.0 0.0 0.00 0.00 0.00 53 1014.0
20260502015039 69 229 2.0 0.0 0.00 0.00 0.00 53 1013.9
20260502014044 69 292 2.0 0.0 0.00 0.00 0.00 52 1013.9
20260502013037 70 304 1.0 0.0 0.00 0.00 0.00 52 1013.9
20260502012046 70 287 2.0 0.0 0.00 0.00 0.00 51 1014.0
20260502011052 71 309 1.0 0.0 0.00 0.00 0.00 52 1014.0
20260502010041 70 64 1.0 0.0 0.00 0.00 0.00 53 1013.9
20260502005043 70 94 2.0 0.0 0.00 0.00 0.00 52 1013.8